カタログに戻る

STARLINK-11184

運用中通信VLEO
NORAD 60071·PAYLOAD·🇺🇸 United States

打ち上げ Jun 19, 2024 から Vandenberg Space Force Base

Loading…

次のパス (今後24時間)

TLE

最新Source: CelesTrak SupGP

元期: Sep 14, 2026, 21:43 UTC

1 60071C 24113N   26257.90534722 -.00031409  00000+0 -25863-3 0  2571
2 60071  53.1568 338.6685 0001258  90.4055  35.5858 15.69733464    15

AllMySatでSTARLINK-11184をリアルタイム追跡

Download on the App Store